Probability
0 0 1 2 3 3 3 3 3 2 1 0 0 0 0 0 0 1 2 1 0 1 2 1 0 0 1 1 1 0 0 0 0 0 0 0 0 0 0 0 0 0 0
0 0 1 2 3 3 3 3 3 2 1 0 0 0 0 0 0 1 1 1 0 1 2 2 1 1 2 2 2 1 0 0 0 0 0 0 0 0 0 0 0 0 0
0 0 1 1 1 3 3 3 3 2 0 0 0 0 0 0 0 0 1 1 1 1 1 2 2 2 3 3 3 2 1 0 0 0 0 0 0 0 0 0 0 0 0
0 0 0 0 1 2 3 3 3 2 1 0 0 0 0 0 0 0 0 1 2 2 1 1 2 3 3 3 3 2 1 0 0 0 0 0 0 0 0 0 0 0 0
0 0 0 0 0 1 3 3 3 2 1 0 0 0 0 0 0 0 0 0 1 2 1 1 3 3 3 2 3 2 1 0 0 0 0 0 0 0 0 0 0 0 0
0 0 0 0 0 1 2 3 3 3 1 0 0 0 0 0 0 0 0 0 1 2 2 3 3 3 3 2 2 2 1 0 0 0 0 0 0 0 0 0 0 0 0
0 0 0 0 1 1 2 3 4 3 2 1 0 0 0 0 0 0 0 0 1 1 2 3 3 3 3 3 2 1 0 0 0 0 0 0 0 0 0 0 0 0 0
0 0 0 0 1 2 1 2 4 4 3 3 2 1 1 1 0 0 0 1 1 1 1 1 2 3 3 2 2 1 0 0 0 0 0 0 0 0 0 0 0 0 0
0 0 1 1 1 2 1 1 3 4 4 4 4 3 2 1 0 0 0 1 2 1 0 0 1 2 2 1 1 0 0 0 0 0 0 0 0 0 0 0 0 0 0
0 1 2 2 2 2 1 0 1 2 3 4 4 3 1 0 0 0 0 1 2 1 0 0 0 1 1 0 0 0 0 0 0 0 0 0 0 0 0 0 0 0 0
0 1 1 1 1 1 0 0 0 1 2 3 2 1 0 0 0 0 0 1 1 0 0 0 0 0 0 0 0 0 0 0 0 0 0 0 0 0 0 0 0 0 0
0 0 1 1 1 0 0 0 0 0 1 1 1 0 0 0 0 0 0 0 0 0 0 0 0 0 0 0 0 0 0 0 0 0 0 0 0 0 0 0 0 0 0
0 0 0 1 1 0 0 0 0 0 0 0 0 0 0 0 0 0 0 0 0 0 0 0 0 0 0 0 0 0 0 0 0 0 0 0 0 0 0 0 0 0 0
0 0 0 0 0 0 0 0 0 0 0 0 0 0 0 0 0 0 1 1 0 0 0 0 0 0 0 0 0 0 0 0 0 0 0 0 0 0 0 0 0 0 0
0 0 0 0 0 0 0 0 0 0 0 0 0 0 0 0 0 0 1 2 1 0 0 0 0 0 0 0 0 0 0 0 0 0 0 0 0 0 0 0 0 0 0
0 0 0 0 0 0 0 1 0 0 0 0 0 0 0 0 0 0 1 2 1 0 0 0 0 0 0 0 0 0 0 0 0 0 0 0 0 0 0 0 0 0 0
0 0 0 0 0 0 0 0 0 0 0 0 0 0 0 0 0 0 1 2 1 0 0 0 0 0 0 0 0 0 0 0 0 0 0 0 0 0 0 0 0 0 0
0 0 0 0 0 0 0 0 0 0 0 0 0 0 0 0 0 0 1 2 1 0 0 0 0 0 0 0 0 0 0 0 0 0 0 0 0 0 0 0 0 0 0
0 0 0 0 0 0 0 0 0 0 0 0 0 0 0 0 0 1 1 1 1 0 0 0 0 0 0 0 0 0 0 0 0 0 0 0 0 0 0 0 0 0 0
0 0 0 0 0 0 0 0 0 0 0 0 0 0 0 0 1 2 2 1 0 0 0 0 0 0 0 0 0 0 0 0 0 0 0 0 0 0 0 0 0 0 0
0 0 0 0 0 0 0 0 0 0 0 0 0 0 0 0 1 1 1 0 0 0 0 0 0 0 0 0 0 0 0 0 0 0 0 0 0 0 0 0 0 0 0
0 0 0 0 0 0 0 0 0 0 0 0 0 0 0 0 0 0 0 0 0 0 0 0 0 0 0 0 0 0 0 0 0 0 0 0 0 0 0 0 0 0 0
0 0 0 0 0 0 0 0 0 0 0 0 0 0 0 0 0 0 0 0 0 0 0 0 0 0 0 0 0 0 0 0 0 0 0 0 0 0 0 0 0 0 0
0 0 0 0 0 0 0 0 0 0 0 0 0 0 0 0 0 0 0 0 0 0 0 0 0 0 0 0 0 0 0 0 0 0 0 0 0 0 0 0 0 0 0
0 0 0 0 0 0 0 0 0 0 0 0 0 0 0 0 0 0 0 0 0 0 0 0 0 0 0 0 0 0 0 0 0 0 0 0 0 0 0 0 0 0 0
0 0 0 0 0 0 0 0 0 0 0 0 0 0 0 0 0 0 0 0 0 0 0 0 0 0 0 0 0 0 0 0 0 0 0 0 0 0 0 0 0 0 0
Wind_Speed
2 3 6 7 8 10 10 10 9 9 9 9 9 9 9 9 9 9 9 9 9 10 10 10 11 11 11 11 11 11 12 12 12 11 11 10 10 10 10 9 8 6 9
5 4 6 7 8 10 10 10 9 9 9 9 9 8 8 8 9 9 9 9 9 9 9 10 10 10 10 10 10 11 11 11 11 11 10 9 9 9 9 9 8 6 9
6 5 6 7 9 10 9 9 9 8 8 8 8 8 8 8 8 8 8 8 8 8 9 9 9 9 9 9 9 10 9 9 10 10 9 5 5 8 8 8 8 8 8
7 5 5 7 9 9 9 9 9 8 8 8 8 8 8 7 8 8 8 7 7 7 8 8 8 8 8 8 8 8 8 8 9 8 5 4 3 6 7 7 7 8 8
6 4 5 8 9 9 9 8 8 8 7 7 7 7 7 7 7 8 8 7 7 7 7 7 7 7 7 7 7 7 7 7 8 7 4 3 3 5 6 7 7 7 7
6 5 6 9 9 9 9 8 8 8 7 7 7 6 6 7 7 7 7 7 7 6 6 6 6 6 6 6 6 6 6 7 6 3 3 3 2 4 6 6 6 6 6
6 5 5 8 9 8 8 8 8 7 7 6 6 6 6 6 6 6 6 6 6 5 5 5 5 5 5 5 5 5 6 6 4 3 3 2 2 4 5 5 6 6 6
6 5 4 7 7 7 7 8 7 7 7 6 6 5 5 5 5 5 5 5 5 4 4 4 4 4 5 4 4 4 5 5 4 3 2 2 2 3 4 4 5 5 5
5 5 4 4 5 6 6 6 7 6 6 5 5 5 4 4 4 4 4 4 4 3 3 4 4 4 5 5 4 4 5 5 2 1 2 1 2 2 3 3 4 4 4
4 4 4 3 3 3 3 5 5 5 5 4 4 4 3 3 3 3 3 3 3 3 3 3 3 4 4 5 4 4 4 4 2 2 2 2 2 2 2 3 3 3 3
3 3 3 3 3 2 2 4 4 4 4 4 3 3 3 2 2 1 2 2 2 2 2 2 3 4 4 4 4 4 4 1 1 1 2 2 3 3 2 2 2 2 2
5 4 3 4 4 3 2 2 2 2 2 2 2 2 2 1 1 1 1 2 1 2 2 2 3 4 3 2 3 3 1 1 1 1 2 3 3 3 3 3 2 2 2
5 5 4 4 4 4 2 2 2 1 2 2 2 2 2 1 1 1 1 1 1 1 1 2 2 1 1 1 1 1 1 1 1 1 2 4 3 3 3 2 3 3 3
4 4 4 4 4 4 3 3 3 2 2 2 2 2 2 1 1 1 0 0 0 0 0 0 1 1 1 1 1 1 1 1 1 1 2 4 4 4 3 3 3 3 3
5 5 5 5 5 4 4 3 3 3 3 3 2 2 2 2 2 1 1 1 0 0 0 0 0 1 1 1 1 1 1 1 1 1 2 4 4 4 4 4 4 4 4
6 6 5 5 5 5 4 4 3 3 3 3 3 3 3 2 2 2 1 1 1 1 1 1 1 1 1 1 1 1 1 1 1 1 1 2 4 5 5 5 5 4 4
6 6 5 5 5 5 5 4 3 3 3 3 3 3 3 2 2 2 2 1 1 1 0 0 0 0 0 1 1 1 1 1 1 1 1 1 2 4 4 5 4 4 5
5 5 6 5 4 4 4 4 3 3 3 3 2 2 3 3 3 2 2 1 1 0 1 1 1 0 0 1 1 2 1 1 2 1 1 0 1 2 3 5 5 5 5
6 6 6 5 5 4 4 3 3 2 3 2 2 2 2 2 2 2 2 1 1 1 1 0 0 0 0 1 2 2 1 2 2 1 1 1 1 1 1 3 5 6 6
4 5 6 5 4 3 2 2 1 2 2 2 2 2 2 2 2 2 1 1 1 1 0 0 0 1 0 1 2 2 2 2 2 1 2 1 1 1 1 2 2 4 6
3 4 5 5 4 3 2 2 2 2 2 2 2 2 2 2 2 2 2 1 1 2 2 2 1 0 0 0 1 2 2 2 2 1 1 1 2 2 1 1 1 1 3
3 4 4 4 5 4 3 3 2 2 2 2 2 2 2 2 2 2 2 2 2 2 2 2 2 1 0 0 1 1 2 3 2 2 1 2 2 1 2 2 2 2 2
3 4 4 4 4 4 3 2 2 2 1 1 1 1 2 2 2 2 2 2 2 2 3 3 3 2 1 1 0 1 1 2 3 2 2 2 2 2 2 2 3 3 3
4 4 4 4 4 4 4 4 5 4 3 3 2 2 1 2 2 2 2 2 2 2 3 3 2 2 2 2 1 1 1 1 1 3 3 2 3 3 3 3 3 3 3
3 3 3 3 3 3 4 5 5 4 3 2 2 2 1 1 1 2 2 2 2 2 2 2 2 3 2 3 2 1 1 1 1 2 5 4 4 3 3 4 3 3 3
1 2 2 3 3 3 4 4 5 5 4 3 2 2 2 1 1 1 2 2 3 3 3 3 3 3 3 3 2 2 2 2 2 2 4 5 5 4 4 3 3 3 3
Wind_Direction
183 191 165 150 138 128 125 121 115 110 106 102 98 96 94 93 92 90 88 90 87 85 81 80 78 76 74 72 70 68 64 61 57 54 54 55 59 64 65 63 57 50 58
163 172 157 150 141 131 126 123 119 115 112 108 103 100 99 97 94 90 85 86 88 87 83 82 80 77 75 71 69 66 62 59 54 51 47 46 51 59 61 60 58 59 59
144 157 154 148 144 135 130 126 123 120 117 114 109 106 103 100 97 93 89 86 87 88 86 84 82 77 74 70 68 65 60 55 51 46 39 28 39 56 60 60 59 58 56
145 152 153 146 143 139 135 131 127 123 120 118 114 110 107 103 99 95 92 87 85 87 85 82 83 78 72 70 69 65 58 53 50 43 30 18 27 55 60 59 59 55 52
140 145 149 141 140 141 139 137 133 130 125 120 117 113 110 105 100 95 92 89 86 86 86 81 81 78 72 68 67 63 58 53 46 36 17 10 16 51 58 59 58 54 50
140 141 145 143 142 143 142 138 136 134 130 124 120 117 113 109 104 100 93 89 85 83 81 79 78 75 71 65 63 61 57 52 44 28 14 5 8 46 57 58 57 54 50
142 145 152 147 145 145 147 144 141 138 135 131 128 124 119 113 108 103 98 94 89 83 77 72 70 69 63 56 56 58 52 47 47 23 7 358 13 37 50 57 53 50 47
145 144 149 151 147 147 151 151 146 143 143 139 135 131 128 121 115 111 105 101 95 86 77 71 63 60 49 44 50 54 49 42 42 19 355 345 20 37 48 50 49 43 39
139 139 145 152 154 153 153 155 151 149 146 141 136 128 123 120 121 116 105 99 94 86 76 68 63 60 46 38 44 51 46 41 36 358 341 335 7 22 38 40 39 32 26
134 142 147 148 147 150 156 156 153 147 141 135 130 119 113 111 111 106 99 97 93 82 70 62 58 54 42 32 35 40 40 36 24 352 319 324 357 5 9 16 20 15 12
155 159 155 152 147 145 149 152 151 147 137 130 126 117 106 98 99 99 97 93 86 65 54 49 45 39 33 32 28 26 31 31 7 336 308 329 341 341 342 346 352 353 358
189 188 176 166 163 157 161 147 148 148 139 130 125 125 112 111 104 89 85 73 60 39 23 29 26 27 27 20 14 16 18 16 357 321 317 331 331 329 331 334 340 344 344
194 188 184 181 171 162 162 157 153 148 142 140 144 142 128 113 98 90 88 54 24 40 26 9 9 5 5 3 2 4 359 5 349 319 324 334 331 327 327 335 338 333 330
186 196 189 179 173 174 169 170 167 163 159 156 167 159 143 136 137 152 153 163 164 51 143 354 346 335 355 354 2 2 4 350 327 316 319 330 326 317 316 320 318 321 316
198 201 195 182 178 176 172 178 172 175 172 171 170 171 158 158 173 182 185 177 199 232 189 185 261 316 348 345 346 359 345 352 323 319 323 336 332 323 316 310 310 309 313
206 202 195 188 185 175 176 180 182 177 172 166 171 176 166 167 176 181 189 183 206 229 217 198 207 234 293 311 315 327 311 320 313 303 319 333 333 322 313 307 304 307 307
206 197 192 189 182 179 180 181 181 178 164 168 177 175 170 171 179 180 184 191 212 232 217 206 227 94 344 331 301 287 277 271 281 273 293 321 325 329 320 309 306 304 304
199 192 191 186 182 185 181 182 184 175 167 175 177 177 176 176 178 174 181 198 203 202 187 184 176 140 325 314 294 289 283 272 263 258 239 264 329 333 325 317 309 304 302
195 187 184 182 183 188 181 177 178 170 171 173 170 177 183 177 174 171 185 195 173 175 195 196 230 174 253 307 296 294 290 279 259 261 246 237 259 307 321 320 312 300 293
194 184 180 176 178 177 168 150 150 169 170 166 174 190 183 179 170 164 175 187 164 164 176 113 309 338 221 280 309 310 293 283 266 258 251 249 264 282 294 314 321 304 298
174 171 172 170 173 161 162 167 175 198 181 175 184 178 180 173 167 166 173 172 168 187 193 164 143 345 317 32 18 334 318 291 270 270 273 279 290 291 280 285 299 308 308
177 172 169 175 175 175 182 183 185 172 181 174 166 165 172 169 170 178 173 179 191 198 182 164 146 152 253 85 101 360 324 319 308 292 287 275 275 293 296 297 292 282 285
180 181 178 180 178 182 177 153 128 106 93 115 161 188 197 175 169 170 180 186 206 199 195 194 182 172 198 247 146 154 183 264 309 300 275 275 284 287 283 284 277 270 268
197 185 178 179 178 181 171 168 166 173 189 201 191 192 197 185 182 177 182 197 213 209 204 205 199 192 179 214 245 250 228 208 249 303 297 286 280 273 269 272 268 266 267
196 182 179 172 176 183 176 175 173 181 197 183 158 163 184 199 196 195 196 201 214 214 213 208 204 204 206 207 209 229 254 271 232 243 285 301 300 276 263 260 259 262 262
179 172 174 166 176 186 180 175 177 180 180 171 176 184 193 205 221 222 209 210 214 215 215 216 212 209 219 222 225 221 213 216 227 230 259 283 290 290 281 261 255 255 255